Torna al catalogo

AMAZONIA 1

AttivoScienzaSSO
NORAD 47699·PAYLOAD·🇧🇷 Brazil

Lanciato Feb 28, 2021 da Satish Dhawan Space Centre

Loading…

Prossimi Passaggi (prossime 24 ore)

TLE

AggiornatoSource: Space-Track

Epoca: Sep 14, 2026, 11:09 UTC

1 47699U 21015A   26257.46464699  .00000125  00000-0  52602-4 0  9991
2 47699  98.4241 328.8349 0001912 303.2703  56.8303 14.40846046291502

Traccia AMAZONIA 1 in tempo reale con AllMySat

Download on the App Store